Time,TemperatureF,DewpointF,PressureIn,WindDirection,WindDirectionDegrees,WindSpeedMPH,WindSpeedGustMPH,Humidity,HourlyPrecipIn,Conditions,Clouds,dailyrainin,SoftwareType,DateUTC
2013-08-16 00:05:00,55.9,51.1,30.02,SSE,147,0.0,2.0,84,0.00,,,0.00,Wunderground v.1.15,2013-08-16 04:05:00,
2013-08-16 00:10:00,55.7,50.6,30.02,SSE,147,1.0,2.0,83,0.00,,,0.00,Wunderground v.1.15,2013-08-16 04:10:00,
2013-08-16 00:20:00,55.6,50.5,30.02,SSE,147,1.0,2.0,83,0.00,,,0.00,Wunderground v.1.15,2013-08-16 04:20:00,
2013-08-16 00:25:00,55.5,50.4,30.02,SSE,147,0.0,2.0,83,0.00,,,0.00,Wunderground v.1.15,2013-08-16 04:25:00,
2013-08-16 00:30:00,55.4,50.0,30.01,SSE,147,1.0,1.0,82,0.00,,,0.00,Wunderground v.1.15,2013-08-16 04:30:00,
2013-08-16 00:35:00,55.4,50.3,30.02,SSE,147,0.0,2.0,83,0.00,,,0.00,Wunderground v.1.15,2013-08-16 04:35:00,
2013-08-16 00:40:00,55.3,49.9,30.02,SSE,147,1.0,1.0,82,0.00,,,0.00,Wunderground v.1.15,2013-08-16 04:40:00,
2013-08-16 00:45:00,55.3,49.9,30.02,SSE,147,1.0,2.0,82,0.00,,,0.00,Wunderground v.1.15,2013-08-16 04:45:00,
2013-08-16 00:50:00,55.2,49.8,30.02,SSE,147,0.0,2.0,82,0.00,,,0.00,Wunderground v.1.15,2013-08-16 04:50:00,
2013-08-16 00:55:00,55.0,49.6,30.02,SSE,147,0.0,2.0,82,0.00,,,0.00,Wunderground v.1.15,2013-08-16 04:55:00,
2013-08-16 01:00:00,55.0,49.6,30.02,SSE,147,0.0,2.0,82,0.00,,,0.00,Wunderground v.1.15,2013-08-16 05:00:00,
2013-08-16 01:05:00,54.9,49.5,30.02,SSE,147,0.0,2.0,82,0.00,,,0.00,Wunderground v.1.15,2013-08-16 05:05:00,
2013-08-16 01:10:00,54.9,49.8,30.01,SSE,147,0.0,2.0,83,0.00,,,0.00,Wunderground v.1.15,2013-08-16 05:10:00,
2013-08-16 01:20:00,54.8,50.1,30.01,SSE,147,0.0,2.0,84,0.00,,,0.00,Wunderground v.1.15,2013-08-16 05:20:00,
2013-08-16 01:25:00,54.7,50.3,30.01,SSE,147,0.0,2.0,85,0.00,,,0.00,Wunderground v.1.15,2013-08-16 05:25:00,
2013-08-16 01:30:00,54.5,50.1,30.01,SSE,147,0.0,2.0,85,0.00,,,0.00,Wunderground v.1.15,2013-08-16 05:30:00,
2013-08-16 01:35:00,54.4,50.3,30.01,SSE,147,0.0,2.0,86,0.00,,,0.00,Wunderground v.1.15,2013-08-16 05:35:00,
2013-08-16 01:40:00,54.2,50.4,30.01,SSE,147,0.0,2.0,87,0.00,,,0.00,Wunderground v.1.15,2013-08-16 05:40:00,
2013-08-16 01:45:00,54.1,50.6,30.01,SSE,147,0.0,2.0,88,0.00,,,0.00,Wunderground v.1.15,2013-08-16 05:45:00,
2013-08-16 01:55:00,53.9,50.7,30.01,SSE,147,0.0,2.0,89,0.00,,,0.00,Wunderground v.1.15,2013-08-16 05:55:00,
2013-08-16 02:00:00,53.7,50.2,30.01,SSE,147,0.0,2.0,88,0.00,,,0.00,Wunderground v.1.15,2013-08-16 06:00:00,
2013-08-16 02:05:00,53.3,50.1,30.01,SSE,147,0.0,2.0,89,0.00,,,0.00,Wunderground v.1.15,2013-08-16 06:05:00,
2013-08-16 02:10:00,52.9,49.7,30.01,SSE,147,0.0,2.0,89,0.00,,,0.00,Wunderground v.1.15,2013-08-16 06:10:00,
2013-08-16 02:15:00,52.6,49.8,30.01,SSE,147,0.0,2.0,90,0.00,,,0.00,Wunderground v.1.15,2013-08-16 06:15:00,
2013-08-16 02:25:00,52.0,49.5,30.02,SSE,147,0.0,2.0,91,0.00,,,0.00,Wunderground v.1.15,2013-08-16 06:25:00,
2013-08-16 02:35:00,51.7,49.5,30.02,SSE,147,0.0,2.0,92,0.00,,,0.00,Wunderground v.1.15,2013-08-16 06:35:00,
2013-08-16 02:40:00,51.6,49.4,30.02,SSE,147,0.0,2.0,92,0.00,,,0.00,Wunderground v.1.15,2013-08-16 06:40:00,
2013-08-16 02:45:00,51.4,49.2,30.02,SSE,147,0.0,2.0,92,0.00,,,0.00,Wunderground v.1.15,2013-08-16 06:45:00,
2013-08-16 02:50:00,51.3,49.1,30.01,SSE,147,0.0,2.0,92,0.00,,,0.00,Wunderground v.1.15,2013-08-16 06:50:00,
2013-08-16 03:00:00,51.1,49.1,30.01,SSE,147,0.0,2.0,93,0.00,,,0.00,Wunderground v.1.15,2013-08-16 07:00:00,
2013-08-16 03:05:00,51.2,49.2,30.01,SSE,147,0.0,2.0,93,0.00,,,0.00,Wunderground v.1.15,2013-08-16 07:05:00,
2013-08-16 03:10:00,51.2,49.2,30.01,SSE,147,0.0,2.0,93,0.00,,,0.00,Wunderground v.1.15,2013-08-16 07:10:00,
2013-08-16 03:15:00,51.2,49.0,30.01,SSE,147,0.0,2.0,92,0.00,,,0.00,Wunderground v.1.15,2013-08-16 07:15:00,
2013-08-16 03:20:00,51.1,48.9,30.01,SSE,147,0.0,2.0,92,0.00,,,0.00,Wunderground v.1.15,2013-08-16 07:20:00,
2013-08-16 03:25:00,50.9,48.7,30.01,SSE,147,0.0,2.0,92,0.00,,,0.00,Wunderground v.1.15,2013-08-16 07:25:00,
2013-08-16 03:35:00,50.7,48.7,30.01,SSE,147,0.0,2.0,93,0.00,,,0.00,Wunderground v.1.15,2013-08-16 07:35:00,
2013-08-16 03:40:00,50.7,48.7,30.01,SSE,147,0.0,2.0,93,0.00,,,0.00,Wunderground v.1.15,2013-08-16 07:40:00,
2013-08-16 03:50:00,50.8,49.1,30.01,SSE,147,0.0,2.0,94,0.00,,,0.00,Wunderground v.1.15,2013-08-16 07:50:00,
2013-08-16 03:55:00,50.8,49.1,30.01,SSE,147,0.0,2.0,94,0.00,,,0.00,Wunderground v.1.15,2013-08-16 07:55:00,
2013-08-16 04:00:00,50.8,49.1,30.01,SSE,147,0.0,2.0,94,0.00,,,0.00,Wunderground v.1.15,2013-08-16 08:00:00,
2013-08-16 04:10:00,50.6,48.9,30.02,SSE,147,0.0,2.0,94,0.00,,,0.00,Wunderground v.1.15,2013-08-16 08:10:00,
2013-08-16 04:15:00,50.6,48.9,30.02,SSE,147,0.0,2.0,94,0.00,,,0.00,Wunderground v.1.15,2013-08-16 08:15:00,
2013-08-16 04:20:00,50.5,49.1,30.02,SSE,147,0.0,2.0,95,0.00,,,0.00,Wunderground v.1.15,2013-08-16 08:20:00,
2013-08-16 04:25:00,50.5,49.1,30.02,SSE,147,0.0,2.0,95,0.00,,,0.00,Wunderground v.1.15,2013-08-16 08:25:00,
2013-08-16 04:35:00,50.4,49.0,30.02,SSE,147,0.0,2.0,95,0.00,,,0.00,Wunderground v.1.15,2013-08-16 08:35:00,
2013-08-16 04:40:00,50.4,49.0,30.02,SSE,147,0.0,2.0,95,0.00,,,0.00,Wunderground v.1.15,2013-08-16 08:40:00,
2013-08-16 04:50:00,50.5,49.4,30.02,SSE,147,0.0,2.0,96,0.00,,,0.00,Wunderground v.1.15,2013-08-16 08:50:00,
2013-08-16 04:55:00,50.6,49.5,30.02,SSE,147,0.0,2.0,96,0.00,,,0.00,Wunderground v.1.15,2013-08-16 08:55:00,
2013-08-16 05:00:00,50.6,49.2,30.02,SSE,147,0.0,2.0,95,0.00,,,0.00,Wunderground v.1.15,2013-08-16 09:00:00,
2013-08-16 05:05:00,50.6,49.2,30.02,SSE,147,0.0,2.0,95,0.00,,,0.00,Wunderground v.1.15,2013-08-16 09:05:00,
2013-08-16 05:15:00,50.7,49.3,30.02,SSE,147,0.0,2.0,95,0.00,,,0.00,Wunderground v.1.15,2013-08-16 09:15:00,
2013-08-16 05:20:00,50.8,49.4,30.02,SSE,147,0.0,2.0,95,0.00,,,0.00,Wunderground v.1.15,2013-08-16 09:20:00,
2013-08-16 05:25:00,50.9,49.5,30.02,SSE,147,0.0,2.0,95,0.00,,,0.00,Wunderground v.1.15,2013-08-16 09:25:00,
2013-08-16 05:35:00,51.3,49.3,30.02,SSE,147,0.0,2.0,93,0.00,,,0.00,Wunderground v.1.15,2013-08-16 09:35:00,
2013-08-16 05:40:00,51.5,49.3,30.03,SSE,147,0.0,2.0,92,0.00,,,0.00,Wunderground v.1.15,2013-08-16 09:40:00,
2013-08-16 05:45:00,51.5,49.3,30.03,SSE,147,0.0,2.0,92,0.00,,,0.00,Wunderground v.1.15,2013-08-16 09:45:00,
2013-08-16 05:55:00,52.2,49.4,30.03,SSE,147,0.0,2.0,90,0.00,,,0.00,Wunderground v.1.15,2013-08-16 09:55:00,
2013-08-16 06:00:00,52.3,49.2,30.03,SSE,147,0.0,2.0,89,0.00,,,0.00,Wunderground v.1.15,2013-08-16 10:00:00,
2013-08-16 06:05:00,52.3,49.2,30.03,SSE,147,0.0,2.0,89,0.00,,,0.00,Wunderground v.1.15,2013-08-16 10:05:00,
2013-08-16 06:10:00,52.2,49.1,30.03,SSE,147,0.0,2.0,89,0.00,,,0.00,Wunderground v.1.15,2013-08-16 10:10:00,
2013-08-16 06:15:00,52.0,48.9,30.04,SSE,147,0.0,2.0,89,0.00,,,0.00,Wunderground v.1.15,2013-08-16 10:15:00,
2013-08-16 06:25:00,51.7,48.9,30.04,SSE,147,0.0,2.0,90,0.00,,,0.00,Wunderground v.1.15,2013-08-16 10:25:00,
2013-08-16 06:30:00,51.6,49.1,30.04,SSE,147,0.0,2.0,91,0.00,,,0.00,Wunderground v.1.15,2013-08-16 10:30:00,
2013-08-16 06:35:00,51.5,49.0,30.04,SSE,147,0.0,2.0,91,0.00,,,0.00,Wunderground v.1.15,2013-08-16 10:35:00,
2013-08-16 06:45:00,51.5,49.0,30.04,SSE,147,0.0,2.0,91,0.00,,,0.00,Wunderground v.1.15,2013-08-16 10:45:00,
2013-08-16 06:50:00,51.5,49.0,30.04,SSE,147,0.0,2.0,91,0.00,,,0.00,Wunderground v.1.15,2013-08-16 10:50:00,
2013-08-16 07:00:00,51.7,49.2,30.04,SSE,147,0.0,2.0,91,0.00,,,0.00,Wunderground v.1.15,2013-08-16 11:00:00,
2013-08-16 07:05:00,51.8,49.3,30.04,SSE,147,0.0,2.0,91,0.00,,,0.00,Wunderground v.1.15,2013-08-16 11:05:00,
2013-08-16 07:10:00,51.9,49.4,30.04,SSE,147,0.0,2.0,91,0.00,,,0.00,Wunderground v.1.15,2013-08-16 11:10:00,
2013-08-16 07:15:00,51.9,49.4,30.05,SSE,147,0.0,2.0,91,0.00,,,0.00,Wunderground v.1.15,2013-08-16 11:15:00,
2013-08-16 07:20:00,51.9,49.4,30.05,SSE,147,0.0,2.0,91,0.00,,,0.00,Wunderground v.1.15,2013-08-16 11:20:00,
2013-08-16 07:30:00,51.9,49.6,30.05,SSE,147,0.0,2.0,92,0.00,,,0.00,Wunderground v.1.15,2013-08-16 11:30:00,
2013-08-16 07:35:00,52.0,49.7,30.05,SSE,147,0.0,2.0,92,0.00,,,0.00,Wunderground v.1.15,2013-08-16 11:35:00,
2013-08-16 07:40:00,52.2,50.2,30.05,SSE,147,0.0,2.0,93,0.00,,,0.00,Wunderground v.1.15,2013-08-16 11:40:00,
2013-08-16 07:45:00,52.3,50.3,30.05,SSE,147,0.0,2.0,93,0.00,,,0.00,Wunderground v.1.15,2013-08-16 11:45:00,
2013-08-16 07:50:00,52.6,50.3,30.05,SSE,147,0.0,2.0,92,0.00,,,0.00,Wunderground v.1.15,2013-08-16 11:50:00,
2013-08-16 07:55:00,53.0,50.7,30.05,SSE,147,0.0,2.0,92,0.00,,,0.00,Wunderground v.1.15,2013-08-16 11:55:00,
2013-08-16 08:05:00,54.5,51.9,30.05,SSE,147,0.0,2.0,91,0.00,,,0.00,Wunderground v.1.15,2013-08-16 12:05:00,
2013-08-16 08:10:00,55.5,52.0,30.05,SSE,147,0.0,2.0,88,0.00,,,0.00,Wunderground v.1.15,2013-08-16 12:10:00,
2013-08-16 08:15:00,56.4,52.6,30.05,SSE,147,0.0,2.0,87,0.00,,,0.00,Wunderground v.1.15,2013-08-16 12:15:00,
2013-08-16 08:20:00,57.2,53.4,30.05,SSE,147,0.0,2.0,87,0.00,,,0.00,Wunderground v.1.15,2013-08-16 12:20:00,
2013-08-16 08:25:00,58.2,54.0,30.05,SSE,147,0.0,2.0,86,0.00,,,0.00,Wunderground v.1.15,2013-08-16 12:25:00,
2013-08-16 08:35:00,59.5,54.3,30.05,SSE,147,0.0,2.0,83,0.00,,,0.00,Wunderground v.1.15,2013-08-16 12:35:00,
2013-08-16 08:40:00,59.6,53.8,30.06,SSE,147,0.0,2.0,81,0.00,,,0.00,Wunderground v.1.15,2013-08-16 12:40:00,
2013-08-16 08:45:00,59.3,53.5,30.05,WSW,254,0.0,3.0,81,0.00,,,0.00,Wunderground v.1.15,2013-08-16 12:45:00,
2013-08-16 08:50:00,59.0,53.5,30.05,WSW,254,1.0,1.0,82,0.00,,,0.00,Wunderground v.1.15,2013-08-16 12:50:00,
2013-08-16 08:55:00,59.0,53.8,30.05,WSW,254,0.0,2.0,83,0.00,,,0.00,Wunderground v.1.15,2013-08-16 12:55:00,
2013-08-16 09:05:00,60.0,53.8,30.05,SSW,204,0.0,2.0,80,0.00,,,0.00,Wunderground v.1.15,2013-08-16 13:05:00,
2013-08-16 09:10:00,60.3,53.8,30.05,SSW,206,0.0,2.0,79,0.00,,,0.00,Wunderground v.1.15,2013-08-16 13:10:00,
2013-08-16 09:20:00,61.1,54.5,30.06,SW,215,1.0,1.0,79,0.00,,,0.00,Wunderground v.1.15,2013-08-16 13:20:00,
2013-08-16 09:25:00,61.4,54.8,30.06,SW,215,1.0,2.0,79,0.00,,,0.00,Wunderground v.1.15,2013-08-16 13:25:00,
2013-08-16 09:30:00,61.8,55.2,30.06,ESE,103,0.0,2.0,79,0.00,,,0.00,Wunderground v.1.15,2013-08-16 13:30:00,
2013-08-16 09:35:00,62.4,55.8,30.05,WSW,238,1.0,2.0,79,0.00,,,0.00,Wunderground v.1.15,2013-08-16 13:35:00,
2013-08-16 09:45:00,63.5,55.1,30.06,West,266,1.0,3.0,74,0.00,,,0.00,Wunderground v.1.15,2013-08-16 13:45:00,
2013-08-16 09:50:00,64.1,55.6,30.05,SW,216,1.0,2.0,74,0.00,,,0.00,Wunderground v.1.15,2013-08-16 13:50:00,
2013-08-16 09:55:00,64.9,56.0,30.06,SW,216,1.0,2.0,73,0.00,,,0.00,Wunderground v.1.15,2013-08-16 13:55:00,
2013-08-16 10:00:00,65.7,56.4,30.05,SSW,195,1.0,3.0,72,0.00,,,0.00,Wunderground v.1.15,2013-08-16 14:00:00,
2013-08-16 10:05:00,66.0,56.7,30.05,WSW,240,1.0,3.0,72,0.00,,,0.00,Wunderground v.1.15,2013-08-16 14:05:00,
2013-08-16 10:15:00,66.9,57.2,30.05,SSW,206,1.0,2.0,71,0.00,,,0.00,Wunderground v.1.15,2013-08-16 14:15:00,
2013-08-16 10:20:00,67.0,58.1,30.05,WSW,237,2.0,2.0,73,0.00,,,0.00,Wunderground v.1.15,2013-08-16 14:20:00,
2013-08-16 10:25:00,67.2,57.5,30.05,WSW,247,2.0,2.0,71,0.00,,,0.00,Wunderground v.1.15,2013-08-16 14:25:00,
2013-08-16 10:30:00,67.4,56.9,30.05,SW,224,2.0,2.0,69,0.00,,,0.00,Wunderground v.1.15,2013-08-16 14:30:00,
2013-08-16 10:35:00,68.0,57.4,30.05,SW,217,2.0,5.0,69,0.00,,,0.00,Wunderground v.1.15,2013-08-16 14:35:00,
2013-08-16 10:40:00,68.4,57.4,30.05,SSW,213,2.0,2.0,68,0.00,,,0.00,Wunderground v.1.15,2013-08-16 14:40:00,
2013-08-16 10:50:00,68.5,57.5,30.05,West,275,2.0,4.0,68,0.00,,,0.00,Wunderground v.1.15,2013-08-16 14:50:00,
2013-08-16 11:00:00,68.6,55.9,30.05,WSW,243,5.0,5.0,64,0.00,,,0.00,Wunderground v.1.15,2013-08-16 15:00:00,
2013-08-16 11:05:00,68.6,55.1,30.05,SW,216,5.0,5.0,62,0.00,,,0.00,Wunderground v.1.15,2013-08-16 15:05:00,
2013-08-16 11:10:00,68.5,55.8,30.05,WSW,255,5.0,5.0,64,0.00,,,0.00,Wunderground v.1.15,2013-08-16 15:10:00,
2013-08-16 11:15:00,68.3,55.2,30.05,SW,234,5.0,8.0,63,0.00,,,0.00,Wunderground v.1.15,2013-08-16 15:15:00,
2013-08-16 11:25:00,68.7,54.7,30.05,West,268,4.0,5.0,61,0.00,,,0.00,Wunderground v.1.15,2013-08-16 15:25:00,
2013-08-16 11:30:00,69.3,55.7,30.05,SW,221,4.0,4.0,62,0.00,,,0.00,Wunderground v.1.15,2013-08-16 15:30:00,
2013-08-16 11:35:00,69.9,54.4,30.05,SSE,158,3.0,5.0,58,0.00,,,0.00,Wunderground v.1.15,2013-08-16 15:35:00,
2013-08-16 11:40:00,69.7,54.7,30.05,West,271,3.0,3.0,59,0.00,,,0.00,Wunderground v.1.15,2013-08-16 15:40:00,
2013-08-16 11:45:00,69.2,53.8,30.05,WSW,252,4.0,4.0,58,0.00,,,0.00,Wunderground v.1.15,2013-08-16 15:45:00,
2013-08-16 11:55:00,69.1,56.8,30.05,SW,231,3.0,4.0,65,0.00,,,0.00,Wunderground v.1.15,2013-08-16 15:55:00,
2013-08-16 12:05:00,70.2,54.7,30.05,WNW,291,3.0,8.0,58,0.00,,,0.00,Wunderground v.1.15,2013-08-16 16:05:00,
2013-08-16 12:10:00,69.7,54.7,30.06,WSW,245,5.0,9.0,59,0.00,,,0.00,Wunderground v.1.15,2013-08-16 16:10:00,
2013-08-16 12:15:00,69.7,53.8,30.05,WNW,297,6.0,9.0,57,0.00,,,0.00,Wunderground v.1.15,2013-08-16 16:15:00,
2013-08-16 12:20:00,70.7,55.2,30.05,WNW,294,5.0,5.0,58,0.00,,,0.00,Wunderground v.1.15,2013-08-16 16:20:00,
2013-08-16 12:30:00,70.6,54.6,30.05,SSW,203,4.0,6.0,57,0.00,,,0.00,Wunderground v.1.15,2013-08-16 16:30:00,
2013-08-16 12:35:00,69.6,53.2,30.05,SW,229,4.0,6.0,56,0.00,,,0.00,Wunderground v.1.15,2013-08-16 16:35:00,
2013-08-16 12:40:00,69.4,54.0,30.05,West,270,3.0,3.0,58,0.00,,,0.00,Wunderground v.1.15,2013-08-16 16:40:00,
2013-08-16 12:50:00,71.7,55.7,30.05,WSW,243,2.0,4.0,57,0.00,,,0.00,Wunderground v.1.15,2013-08-16 16:50:00,
2013-08-16 12:55:00,72.3,55.7,30.05,WSW,253,4.0,4.0,56,0.00,,,0.00,Wunderground v.1.15,2013-08-16 16:55:00,
2013-08-16 13:00:00,71.8,54.8,30.05,WSW,255,5.0,5.0,55,0.00,,,0.00,Wunderground v.1.15,2013-08-16 17:00:00,
2013-08-16 13:10:00,71.6,54.6,30.05,SW,235,4.0,4.0,55,0.00,,,0.00,Wunderground v.1.15,2013-08-16 17:10:00,
2013-08-16 13:15:00,71.9,53.8,30.05,WSW,247,4.0,4.0,53,0.00,,,0.00,Wunderground v.1.15,2013-08-16 17:15:00,
2013-08-16 13:20:00,71.8,53.2,30.05,WSW,239,5.0,5.0,52,0.00,,,0.00,Wunderground v.1.15,2013-08-16 17:20:00,
2013-08-16 13:25:00,72.1,54.0,30.05,WSW,252,5.0,5.0,53,0.00,,,0.00,Wunderground v.1.15,2013-08-16 17:25:00,
2013-08-16 13:30:00,72.4,54.8,30.05,WNW,303,4.0,8.0,54,0.00,,,0.00,Wunderground v.1.15,2013-08-16 17:30:00,
2013-08-16 13:40:00,71.7,52.1,30.05,SSW,193,4.0,4.0,50,0.00,,,0.00,Wunderground v.1.15,2013-08-16 17:40:00,
2013-08-16 13:45:00,72.6,55.0,30.05,SW,233,4.0,4.0,54,0.00,,,0.00,Wunderground v.1.15,2013-08-16 17:45:00,
2013-08-16 13:50:00,73.0,53.8,30.05,South,180,4.0,4.0,51,0.00,,,0.00,Wunderground v.1.15,2013-08-16 17:50:00,
2013-08-16 13:55:00,72.0,52.3,30.05,WNW,282,4.0,4.0,50,0.00,,,0.00,Wunderground v.1.15,2013-08-16 17:55:00,
2013-08-16 14:05:00,72.4,54.3,30.05,WSW,249,4.0,6.0,53,0.00,,,0.00,Wunderground v.1.15,2013-08-16 18:05:00,
2013-08-16 14:15:00,73.0,52.7,30.05,SSW,206,4.0,5.0,49,0.00,,,0.00,Wunderground v.1.15,2013-08-16 18:15:00,
2013-08-16 14:20:00,73.0,52.7,30.05,West,265,4.0,4.0,49,0.00,,,0.00,Wunderground v.1.15,2013-08-16 18:20:00,
2013-08-16 14:25:00,73.3,53.5,30.05,WSW,239,3.0,4.0,50,0.00,,,0.00,Wunderground v.1.15,2013-08-16 18:25:00,
2013-08-16 14:30:00,73.7,52.8,30.05,SSW,204,3.0,6.0,48,0.00,,,0.00,Wunderground v.1.15,2013-08-16 18:30:00,
2013-08-16 14:35:00,74.0,53.1,30.05,WSW,245,4.0,6.0,48,0.00,,,0.00,Wunderground v.1.15,2013-08-16 18:35:00,
2013-08-16 14:45:00,73.0,54.9,30.05,SW,218,3.0,5.0,53,0.00,,,0.00,Wunderground v.1.15,2013-08-16 18:45:00,
2013-08-16 14:50:00,72.7,53.0,30.05,WSW,251,2.0,4.0,50,0.00,,,0.00,Wunderground v.1.15,2013-08-16 18:50:00,
2013-08-16 15:00:00,72.2,54.6,30.04,West,264,3.0,3.0,54,0.00,,,0.00,Wunderground v.1.15,2013-08-16 19:00:00,
2013-08-16 15:05:00,72.9,53.7,30.05,SSW,201,3.0,5.0,51,0.00,,,0.00,Wunderground v.1.15,2013-08-16 19:05:00,
2013-08-16 15:10:00,73.7,53.9,30.05,West,272,3.0,3.0,50,0.00,,,0.00,Wunderground v.1.15,2013-08-16 19:10:00,
2013-08-16 15:20:00,74.4,54.5,30.04,SSW,205,3.0,3.0,50,0.00,,,0.00,Wunderground v.1.15,2013-08-16 19:20:00,
2013-08-16 15:25:00,74.2,52.7,30.04,SW,230,4.0,4.0,47,0.00,,,0.00,Wunderground v.1.15,2013-08-16 19:25:00,
2013-08-16 15:30:00,73.7,53.3,30.04,West,268,3.0,3.0,49,0.00,,,0.00,Wunderground v.1.15,2013-08-16 19:30:00,
2013-08-16 15:35:00,73.2,54.0,30.04,SW,217,2.0,3.0,51,0.00,,,0.00,Wunderground v.1.15,2013-08-16 19:35:00,
2013-08-16 15:40:00,72.9,53.7,30.04,SSE,168,2.0,3.0,51,0.00,,,0.00,Wunderground v.1.15,2013-08-16 19:40:00,
2013-08-16 15:50:00,72.9,53.7,30.04,SW,236,3.0,3.0,51,0.00,,,0.00,Wunderground v.1.15,2013-08-16 19:50:00,
2013-08-16 16:00:00,72.4,54.3,30.04,SSW,209,3.0,3.0,53,0.00,,,0.00,Wunderground v.1.15,2013-08-16 20:00:00,
2013-08-16 16:05:00,72.6,54.5,30.04,WSW,253,3.0,6.0,53,0.00,,,0.00,Wunderground v.1.15,2013-08-16 20:05:00,
2013-08-16 16:10:00,73.3,53.5,30.04,South,186,3.0,3.0,50,0.00,,,0.00,Wunderground v.1.15,2013-08-16 20:10:00,
2013-08-16 16:20:00,74.4,55.1,30.04,SW,220,3.0,3.0,51,0.00,,,0.00,Wunderground v.1.15,2013-08-16 20:20:00,
2013-08-16 16:25:00,74.6,54.2,30.04,WSW,237,3.0,3.0,49,0.00,,,0.00,Wunderground v.1.15,2013-08-16 20:25:00,
2013-08-16 16:35:00,74.7,54.8,30.04,SSW,212,2.0,4.0,50,0.00,,,0.00,Wunderground v.1.15,2013-08-16 20:35:00,
2013-08-16 16:40:00,74.8,56.0,30.04,West,280,2.0,2.0,52,0.00,,,0.00,Wunderground v.1.15,2013-08-16 20:40:00,
2013-08-16 16:45:00,74.7,54.8,30.04,WSW,237,3.0,3.0,50,0.00,,,0.00,Wunderground v.1.15,2013-08-16 20:45:00,
2013-08-16 16:50:00,75.0,55.1,30.04,SW,226,1.0,4.0,50,0.00,,,0.00,Wunderground v.1.15,2013-08-16 20:50:00,
2013-08-16 16:55:00,75.0,55.1,30.04,South,191,2.0,4.0,50,0.00,,,0.00,Wunderground v.1.15,2013-08-16 20:55:00,
2013-08-16 17:05:00,75.1,54.6,30.04,WSW,243,1.0,3.0,49,0.00,,,0.00,Wunderground v.1.15,2013-08-16 21:05:00,
2013-08-16 17:10:00,75.2,55.3,30.04,WSW,248,2.0,4.0,50,0.00,,,0.00,Wunderground v.1.15,2013-08-16 21:10:00,
2013-08-16 17:15:00,74.8,54.9,30.04,WSW,244,3.0,5.0,50,0.00,,,0.00,Wunderground v.1.15,2013-08-16 21:15:00,
2013-08-16 17:20:00,74.4,55.1,30.04,WSW,250,3.0,3.0,51,0.00,,,0.00,Wunderground v.1.15,2013-08-16 21:20:00,
2013-08-16 17:25:00,74.4,56.2,30.05,SW,232,3.0,3.0,53,0.00,,,0.00,Wunderground v.1.15,2013-08-16 21:25:00,
2013-08-16 17:35:00,74.5,55.2,30.05,SW,236,2.0,5.0,51,0.00,,,0.00,Wunderground v.1.15,2013-08-16 21:35:00,
2013-08-16 17:45:00,74.0,54.2,30.05,SW,216,3.0,4.0,50,0.00,,,0.00,Wunderground v.1.15,2013-08-16 21:45:00,
2013-08-16 17:50:00,74.1,55.9,30.05,West,262,2.0,2.0,53,0.00,,,0.00,Wunderground v.1.15,2013-08-16 21:50:00,
2013-08-16 17:55:00,74.6,55.3,30.05,SSE,164,1.0,2.0,51,0.00,,,0.00,Wunderground v.1.15,2013-08-16 21:55:00,
2013-08-16 18:00:00,74.4,55.6,30.04,WSW,238,2.0,4.0,52,0.00,,,0.00,Wunderground v.1.15,2013-08-16 22:00:00,
2013-08-16 18:10:00,73.8,54.5,30.05,WSW,247,3.0,3.0,51,0.00,,,0.00,Wunderground v.1.15,2013-08-16 22:10:00,
2013-08-16 18:20:00,73.5,54.8,30.05,SW,231,2.0,2.0,52,0.00,,,0.00,Wunderground v.1.15,2013-08-16 22:20:00,
2013-08-16 18:25:00,73.5,54.8,30.05,SW,218,1.0,2.0,52,0.00,,,0.00,Wunderground v.1.15,2013-08-16 22:25:00,
2013-08-16 18:30:00,73.6,55.4,30.05,WSW,245,1.0,2.0,53,0.00,,,0.00,Wunderground v.1.15,2013-08-16 22:30:00,
2013-08-16 18:35:00,73.7,55.5,30.05,SW,221,1.0,4.0,53,0.00,,,0.00,Wunderground v.1.15,2013-08-16 22:35:00,
2013-08-16 18:40:00,73.6,56.4,30.05,SW,222,1.0,2.0,55,0.00,,,0.00,Wunderground v.1.15,2013-08-16 22:40:00,
2013-08-16 18:50:00,73.1,56.0,30.05,WSW,243,1.0,1.0,55,0.00,,,0.00,Wunderground v.1.15,2013-08-16 22:50:00,
2013-08-16 18:55:00,73.0,56.4,30.06,WSW,243,0.0,2.0,56,0.00,,,0.00,Wunderground v.1.15,2013-08-16 22:55:00,
2013-08-16 19:00:00,72.9,56.8,30.06,SSW,209,0.0,2.0,57,0.00,,,0.00,Wunderground v.1.15,2013-08-16 23:00:00,
2013-08-16 19:05:00,72.6,56.5,30.06,SSW,208,1.0,2.0,57,0.00,,,0.00,Wunderground v.1.15,2013-08-16 23:05:00,
2013-08-16 19:10:00,72.4,56.3,30.06,SSW,213,0.0,2.0,57,0.00,,,0.00,Wunderground v.1.15,2013-08-16 23:10:00,
2013-08-16 19:15:00,72.1,56.0,30.06,SSW,213,0.0,2.0,57,0.00,,,0.00,Wunderground v.1.15,2013-08-16 23:15:00,
2013-08-16 19:25:00,71.6,56.5,30.07,SSW,213,0.0,2.0,59,0.00,,,0.00,Wunderground v.1.15,2013-08-16 23:25:00,
2013-08-16 19:30:00,71.1,57.4,30.07,SSW,213,0.0,2.0,62,0.00,,,0.00,Wunderground v.1.15,2013-08-16 23:30:00,
2013-08-16 19:35:00,70.6,57.4,30.07,SSW,213,0.0,2.0,63,0.00,,,0.00,Wunderground v.1.15,2013-08-16 23:35:00,
2013-08-16 19:40:00,69.7,57.0,30.07,SSW,213,0.0,2.0,64,0.00,,,0.00,Wunderground v.1.15,2013-08-16 23:40:00,
2013-08-16 19:45:00,68.8,56.1,30.07,SSW,213,0.0,2.0,64,0.00,,,0.00,Wunderground v.1.15,2013-08-16 23:45:00,
2013-08-16 19:50:00,68.0,56.6,30.07,SSW,213,0.0,2.0,67,0.00,,,0.00,Wunderground v.1.15,2013-08-16 23:50:00,
2013-08-16 20:00:00,66.9,56.0,30.07,SSW,213,0.0,2.0,68,0.00,,,0.00,Wunderground v.1.15,2013-08-17 00:00:00,
2013-08-16 20:05:00,66.5,56.4,30.07,SSW,213,0.0,2.0,70,0.00,,,0.00,Wunderground v.1.15,2013-08-17 00:05:00,
2013-08-16 20:10:00,66.3,56.6,30.07,SSW,213,0.0,2.0,71,0.00,,,0.00,Wunderground v.1.15,2013-08-17 00:10:00,
2013-08-16 20:20:00,66.1,56.8,30.08,SSW,213,0.0,2.0,72,0.00,,,0.00,Wunderground v.1.15,2013-08-17 00:20:00,
2013-08-16 20:25:00,66.1,56.8,30.08,SSW,212,0.0,2.0,72,0.00,,,0.00,Wunderground v.1.15,2013-08-17 00:25:00,
2013-08-16 20:35:00,65.8,56.1,30.08,SSW,213,0.0,2.0,71,0.00,,,0.00,Wunderground v.1.15,2013-08-17 00:35:00,
2013-08-16 20:40:00,65.7,56.0,30.08,SSW,212,0.0,2.0,71,0.00,,,0.00,Wunderground v.1.15,2013-08-17 00:40:00,
2013-08-16 20:45:00,65.6,55.9,30.08,SSW,213,0.0,2.0,71,0.00,,,0.00,Wunderground v.1.15,2013-08-17 00:45:00,
2013-08-16 20:50:00,65.5,56.2,30.08,West,273,0.0,2.0,72,0.00,,,0.00,Wunderground v.1.15,2013-08-17 00:50:00,
2013-08-16 20:55:00,65.4,56.5,30.09,West,273,0.0,2.0,73,0.00,,,0.00,Wunderground v.1.15,2013-08-17 00:55:00,
2013-08-16 21:05:00,64.9,56.4,30.09,WSW,250,0.0,2.0,74,0.00,,,0.00,Wunderground v.1.15,2013-08-17 01:05:00,
2013-08-16 21:10:00,64.8,56.3,30.09,WSW,249,1.0,2.0,74,0.00,,,0.00,Wunderground v.1.15,2013-08-17 01:10:00,
2013-08-16 21:15:00,64.6,56.1,30.10,WSW,249,1.0,2.0,74,0.00,,,0.00,Wunderground v.1.15,2013-08-17 01:15:00,
2013-08-16 21:20:00,64.3,56.2,30.10,WSW,249,0.0,2.0,75,0.00,,,0.00,Wunderground v.1.15,2013-08-17 01:20:00,
2013-08-16 21:25:00,64.0,55.9,30.10,WSW,250,1.0,2.0,75,0.00,,,0.00,Wunderground v.1.15,2013-08-17 01:25:00,
2013-08-16 21:30:00,63.8,55.7,30.10,WSW,250,1.0,2.0,75,0.00,,,0.00,Wunderground v.1.15,2013-08-17 01:30:00,
2013-08-16 21:40:00,63.4,55.7,30.09,WSW,250,0.0,2.0,76,0.00,,,0.00,Wunderground v.1.15,2013-08-17 01:40:00,
2013-08-16 21:45:00,63.0,55.3,30.09,WSW,250,0.0,2.0,76,0.00,,,0.00,Wunderground v.1.15,2013-08-17 01:45:00,
2013-08-16 21:50:00,62.7,55.4,30.09,WSW,249,0.0,2.0,77,0.00,,,0.00,Wunderground v.1.15,2013-08-17 01:50:00,
2013-08-16 22:00:00,62.1,54.8,30.09,WSW,249,0.0,2.0,77,0.00,,,0.00,Wunderground v.1.15,2013-08-17 02:00:00,
2013-08-16 22:05:00,61.8,54.9,30.09,WSW,250,0.0,2.0,78,0.00,,,0.00,Wunderground v.1.15,2013-08-17 02:05:00,
2013-08-16 22:15:00,61.4,54.8,30.09,WSW,250,0.0,2.0,79,0.00,,,0.00,Wunderground v.1.15,2013-08-17 02:15:00,
2013-08-16 22:20:00,61.4,55.2,30.09,WSW,250,0.0,2.0,80,0.00,,,0.00,Wunderground v.1.15,2013-08-17 02:20:00,
2013-08-16 22:25:00,61.5,55.3,30.09,WSW,250,0.0,2.0,80,0.00,,,0.00,Wunderground v.1.15,2013-08-17 02:25:00,
2013-08-16 22:30:00,61.6,55.0,30.09,WSW,250,0.0,2.0,79,0.00,,,0.00,Wunderground v.1.15,2013-08-17 02:30:00,
2013-08-16 22:35:00,61.7,54.8,30.09,WSW,250,0.0,2.0,78,0.00,,,0.00,Wunderground v.1.15,2013-08-17 02:35:00,
2013-08-16 22:45:00,61.4,54.8,30.10,WSW,250,0.0,2.0,79,0.00,,,0.00,Wunderground v.1.15,2013-08-17 02:45:00,
2013-08-16 22:50:00,61.1,54.9,30.10,WSW,250,0.0,2.0,80,0.00,,,0.00,Wunderground v.1.15,2013-08-17 02:50:00,
2013-08-16 23:00:00,60.5,54.6,30.10,WSW,250,0.0,2.0,81,0.00,,,0.00,Wunderground v.1.15,2013-08-17 03:00:00,
2013-08-16 23:05:00,60.4,54.2,30.10,WSW,250,0.0,2.0,80,0.00,,,0.00,Wunderground v.1.15,2013-08-17 03:05:00,
2013-08-16 23:10:00,60.1,54.6,30.10,WSW,250,0.0,2.0,82,0.00,,,0.00,Wunderground v.1.15,2013-08-17 03:10:00,
2013-08-16 23:20:00,59.7,53.9,30.10,WSW,250,0.0,2.0,81,0.00,,,0.00,Wunderground v.1.15,2013-08-17 03:20:00,
2013-08-16 23:25:00,59.6,54.1,30.10,WSW,250,0.0,2.0,82,0.00,,,0.00,Wunderground v.1.15,2013-08-17 03:25:00,
2013-08-16 23:30:00,59.4,54.2,30.10,WSW,250,0.0,2.0,83,0.00,,,0.00,Wunderground v.1.15,2013-08-17 03:30:00,
2013-08-16 23:35:00,59.3,53.8,30.10,WSW,250,0.0,2.0,82,0.00,,,0.00,Wunderground v.1.15,2013-08-17 03:35:00,
2013-08-16 23:40:00,59.3,53.8,30.10,WSW,250,0.0,2.0,82,0.00,,,0.00,Wunderground v.1.15,2013-08-17 03:40:00,
2013-08-16 23:45:00,59.3,53.5,30.10,WSW,250,0.0,2.0,81,0.00,,,0.00,Wunderground v.1.15,2013-08-17 03:45:00,
2013-08-16 23:55:00,59.3,52.8,30.10,WSW,250,0.0,2.0,79,0.00,,,0.00,Wunderground v.1.15,2013-08-17 03:55:00,